TimeEDT,TemperatureF,Dew PointF,Humidity,Sea Level PressureIn,VisibilityMPH,Wind Direction,Wind SpeedMPH,Gust SpeedMPH,PrecipitationIn,Events,Conditions,WindDirDegrees,DateUTC
12:15 AM,72.3,66.2,81,30.04,10.0,SE,8.1,-,N/A,,Overcast,140,2013-08-30 04:15:00
12:35 AM,72.1,65.8,80,30.04,10.0,SE,5.8,-,N/A,,Overcast,130,2013-08-30 04:35:00
12:55 AM,72.1,65.3,79,30.04,10.0,SE,4.6,-,N/A,,Overcast,140,2013-08-30 04:55:00
1:15 AM,72.1,65.3,79,30.03,10.0,SE,4.6,-,N/A,,Overcast,140,2013-08-30 05:15:00
1:35 AM,71.6,65.3,80,30.02,10.0,SSE,4.6,-,N/A,,Overcast,160,2013-08-30 05:35:00
1:55 AM,71.6,65.5,81,30.02,10.0,South,3.5,-,N/A,,Overcast,180,2013-08-30 05:55:00
2:15 AM,71.2,65.3,81,30.02,10.0,SSE,3.5,-,N/A,,Overcast,160,2013-08-30 06:15:00
2:35 AM,71.6,65.3,80,30.02,10.0,SSE,3.5,-,N/A,,Overcast,150,2013-08-30 06:35:00
2:55 AM,71.2,65.3,81,30.01,10.0,South,3.5,-,N/A,,Overcast,180,2013-08-30 06:55:00
3:15 AM,71.6,65.5,81,30.01,10.0,Calm,Calm,-,N/A,,Overcast,0,2013-08-30 07:15:00
3:35 AM,71.2,65.5,82,30.01,10.0,Calm,Calm,-,N/A,,Overcast,0,2013-08-30 07:35:00
3:55 AM,71.2,65.3,81,30.01,10.0,Calm,Calm,-,N/A,,Overcast,0,2013-08-30 07:55:00
4:15 AM,71.1,65.5,82,30.01,10.0,Calm,Calm,-,N/A,,Overcast,0,2013-08-30 08:15:00
4:35 AM,71.1,65.5,82,30.01,10.0,Calm,Calm,-,N/A,,Overcast,0,2013-08-30 08:35:00
4:55 AM,71.1,65.5,82,30.01,10.0,WSW,3.5,-,N/A,,Overcast,250,2013-08-30 08:55:00
5:15 AM,70.9,65.7,83,30.01,10.0,West,4.6,-,N/A,,Overcast,270,2013-08-30 09:15:00
5:35 AM,70.9,66.0,85,30.01,10.0,WSW,4.6,-,N/A,,Overcast,250,2013-08-30 09:35:00
5:55 AM,70.9,65.8,84,30.01,10.0,Calm,Calm,-,N/A,,Overcast,0,2013-08-30 09:55:00
6:15 AM,70.9,66.0,85,30.01,10.0,WSW,3.5,-,N/A,,Overcast,250,2013-08-30 10:15:00
6:35 AM,71.1,66.0,84,30.01,10.0,Calm,Calm,-,N/A,,Overcast,0,2013-08-30 10:35:00
6:55 AM,71.4,66.2,84,30.02,10.0,Calm,Calm,-,N/A,,Overcast,0,2013-08-30 10:55:00
7:15 AM,71.6,66.2,83,30.02,10.0,Calm,Calm,-,N/A,,Overcast,0,2013-08-30 11:15:00
7:35 AM,71.6,66.2,83,30.03,10.0,West,3.5,-,N/A,,Overcast,260,2013-08-30 11:35:00
7:55 AM,71.8,66.2,83,30.02,10.0,WSW,3.5,-,N/A,,Overcast,250,2013-08-30 11:55:00
8:15 AM,72.1,66.2,82,30.02,10.0,West,5.8,-,N/A,,Overcast,260,2013-08-30 12:15:00
8:35 AM,72.9,66.4,80,30.01,10.0,West,6.9,-,N/A,,Overcast,270,2013-08-30 12:35:00
8:55 AM,73.0,66.6,80,30.01,10.0,West,6.9,-,N/A,,Mostly Cloudy,260,2013-08-30 12:55:00
10:15 AM,76.6,67.5,73,30.01,10.0,West,8.1,-,N/A,,Overcast,260,2013-08-30 14:15:00
10:35 AM,75.6,67.1,75,30.01,10.0,West,11.5,16.1,N/A,,Overcast,270,2013-08-30 14:35:00
10:55 AM,76.5,67.6,74,30.00,10.0,West,11.5,-,N/A,,Overcast,280,2013-08-30 14:55:00
11:15 AM,77.0,67.6,73,30.00,10.0,West,11.5,-,N/A,,Mostly Cloudy,260,2013-08-30 15:15:00
11:35 AM,77.2,68.0,73,29.99,10.0,West,9.2,-,N/A,,Mostly Cloudy,260,2013-08-30 15:35:00
11:55 AM,77.7,68.0,72,29.98,10.0,West,8.1,-,N/A,,Mostly Cloudy,270,2013-08-30 15:55:00
12:15 PM,78.6,68.0,70,29.97,10.0,West,10.4,-,N/A,,Mostly Cloudy,270,2013-08-30 16:15:00
10:55 PM,77.0,70.0,79,29.89,10.0,SSW,3.5,-,N/A,,Unknown,200,2013-08-31 02:55:00
11:15 PM,76.6,70.0,80,29.89,10.0,Calm,Calm,-,N/A,,Clear,0,2013-08-31 03:15:00
11:35 PM,77.0,69.8,78,29.89,10.0,SW,3.5,-,N/A,,Clear,230,2013-08-31 03:35:00
11:55 PM,76.3,69.8,80,29.88,10.0,SSW,3.5,-,N/A,,Clear,200,2013-08-31 03:55:00